Regional Weather Roundup
Issued by NWS Huntsville, AL

Home | Current Version | Previous Version | Text Only | Print | Product List | Glossary On
Versions: 1 2 3 4 5 6 7 8 9 10 11 12 13 14 15 16 17 18 19 20 21 22 23 24 25 26 27
000
ASUS44 KHUN 300110
RWRHUN

WEATHER ROUNDUP FOR THE TENNESSEE VALLEY
NATIONAL WEATHER SERVICE HUNTSVILLE AL
800 PM CDT SUN MAY 29 2016

ALZ001>004-300200-
NORTHWEST ALABAMA

CITY           SKY/WX    TMP DP  RH WIND       PRES   REMARKS
COURTLAND HCN    N/A     81 N/A N/A NW5         N/A
RUSSELLVILLE     N/A     75 N/A N/A MISG        N/A
SHOALS AIRPORT CLEAR     80  63  55 NW5       30.04S
SHOALS TVA RES   N/A     84 N/A N/A MISG        N/A
$$

ALZ005>007-016-300200-
NORTH CENTRAL ALABAMA

CITY           SKY/WX    TMP DP  RH WIND       PRES   REMARKS
CULLMAN AG STN   N/A     77 N/A N/A CALM        N/A
DECATUR AP     CLEAR     78  65  63 CALM      30.03S
HUNTSVILLE AP  PTCLDY    82  61  48 NW3       30.03S
HUN NWS/UAH      N/A     85  60  42 NW3         N/A
MERIDIANVILLE  CLEAR     81  57  44 W3        30.04S
REDSTONE ARSN  CLEAR     81  64  55 N3        30.02S
VINEMONT AP    FAIR      74  65  73 CALM      30.08S
$$

ALZ008>010-300200-
NORTHEAST ALABAMA

CITY           SKY/WX    TMP DP  RH WIND       PRES   REMARKS
FORT PAYNE     CLEAR     79  61  53 CALM      30.04R
SCOTTSBORO AP  CLEAR     81  66  61 CALM      30.03S
SCOTTSBORO HCN   N/A     79 N/A N/A MISG        N/A
VALLEY HEAD      N/A     75 N/A N/A MISG        N/A
$$

TNZ076-096-097-300200-
SOUTHEASTERN MIDDLE TENNESSEE

CITY           SKY/WX    TMP DP  RH WIND       PRES   REMARKS
TULLAHOMA      PTCLDY    79  66  65 VRB3      30.06S
WINCHESTER     CLEAR     79  66  65 CALM      30.05S
$$

...SURROUNDING SITES...

CITY           SKY/WX    TMP DP  RH WIND       PRES   REMARKS
ATLANTA        PTCLDY    80  65  59 SE6       30.04S
ANNISTON       CLEAR     77  65  66 W5        30.03S
BIRMINGHAM     PTCLDY    82  64  54 N5        30.06R
CHATTANOOGA    PTCLDY    85  62  46 N8        30.02R
DALTON         CLEAR     79  64  61 CALM      30.02S
GADSDEN        CLEAR     80  67  64 SW5       30.03R
GOLDEN TRNGL   CLEAR     84  63  48 NW5       30.03R
HALEYVILLE     FAIR      76  67  73 CALM      30.08R
JACKSON TN     PTCLDY    79  71  76 W6        30.04R
MEMPHIS        CLOUDY    82  68  62 W7        30.06R
NASHVILLE      PTCLDY    82  64  54 W7        30.04R
OXFORD MS      FAIR      79  68  69 NW3       30.07S
ROME           CLEAR     80  63  55 W5        30.01R
SAVANNAH       CLEAR     77  72  83 CALM      30.03S
TUPELO         PTCLDY    82  64  54 SW3       30.03S
TUSCALOOSA     CLEAR     81  67  62 CALM      30.02S
$$

...GULF COAST WEATHER...

CITY           SKY/WX    TMP DP  RH WIND       PRES   REMARKS
GULFPORT       PTCLDY    81  68  64 SW5       30.02S
PASCAGOULA     PTCLDY    77  69  76 CALM      30.03R
MOBILE         PTCLDY    76  68  76 SW3       30.03S
GULF SHORES    PTCLDY    78  68  71 SW6       30.02S
PENSACOLA      MOCLDY    77  69  76 W3        30.01S
DESTIN         CLEAR     84  67  56 CALM      30.02R
PANAMA CITY    PTCLDY    79  71  76 W7        30.01F
APPALACHICOLA  CLEAR     78  72  81 W6        30.01S
$$





USA.gov is the U.S. government's official web portal to all federal, state and local government web resources and services.